Hourly Weather Bolshoe Vysokoe

Today, 24 July, Saturday

Time Temperature Precipitation Wind Pressure Humidity
00:00 +14°C° 0 mm 3 mps 742 mmHg 90%
01:00 +15°C° 0 mm 2 mps 742 mmHg 90%
02:00 +15°C° 0 mm 2 mps 742 mmHg 90%
03:00 +14°C° 0 mm 2 mps 742 mmHg 90%
04:00 +14°C° 0 mm 2 mps 742 mmHg 89%
05:00 +14°C° 0 mm 2 mps 742 mmHg 88%
06:00 +15°C° 0 mm 2 mps 742 mmHg 81%
07:00 +17°C° 0 mm 2 mps 743 mmHg 74%
08:00 +19°C° 0 mm 2 mps 743 mmHg 67%
09:00 +20°C° 0 mm 2 mps 743 mmHg 62%
10:00 +21°C° 0 mm 2 mps 743 mmHg 57%
11:00 +23°C° 0 mm 1 mps 744 mmHg 52%
12:00 +24°C° 0 mm 1 mps 744 mmHg 49%
13:00 +25°C° 0 mm 1 mps 744 mmHg 46%
14:00 +25°C° 0 mm 1 mps 744 mmHg 43%
15:00 +25°C° 0 mm 1 mps 744 mmHg 44%
16:00 +25°C° 0 mm 1 mps 744 mmHg 45%
17:00 +25°C° 0 mm 1 mps 744 mmHg 46%
18:00 +23°C° 0 mm 1 mps 744 mmHg 51%
19:00 +22°C° 0 mm 1 mps 744 mmHg 56%
20:00 +19°C° 0 mm 2 mps 744 mmHg 61%
21:00 +19°C° 0 mm 2 mps 745 mmHg 62%
22:00 +18°C° 0 mm 2 mps 745 mmHg 63%
23:00 +17°C° 0 mm 2 mps 745 mmHg 65%

Tomorrow, 25 July, Sunday

Time Temperature Precipitation Wind Pressure Humidity
00:00 +17°C° 0 mm 2 mps 745 mmHg 67%
01:00 +16°C° 0 mm 2 mps 745 mmHg 70%
02:00 +16°C° 0 mm 2 mps 746 mmHg 72%
03:00 +15°C° 0 mm 2 mps 746 mmHg 74%
04:00 +15°C° 0 mm 2 mps 746 mmHg 76%
05:00 +15°C° 0 mm 2 mps 746 mmHg 78%
06:00 +17°C° 0 mm 2 mps 746 mmHg 73%
07:00 +19°C° 0 mm 2 mps 746 mmHg 67%
08:00 +21°C° 0 mm 2 mps 747 mmHg 61%
09:00 +23°C° 0 mm 2 mps 747 mmHg 56%
10:00 +25°C° 0 mm 2 mps 747 mmHg 51%
11:00 +26°C° 0 mm 2 mps 747 mmHg 46%
12:00 +27°C° 0 mm 2 mps 747 mmHg 44%
13:00 +27°C° 0 mm 2 mps 747 mmHg 42%
14:00 +28°C° 0 mm 2 mps 747 mmHg 40%
15:00 +27°C° 0 mm 2 mps 747 mmHg 43%
16:00 +27°C° 0 mm 2 mps 747 mmHg 46%
17:00 +26°C° 0 mm 2 mps 747 mmHg 49%
18:00 +25°C° 0 mm 2 mps 747 mmHg 54%
19:00 +24°C° 0 mm 2 mps 747 mmHg 58%
20:00 +23°C° 0 mm 2 mps 747 mmHg 62%
21:00 +21°C° 0 mm 2 mps 747 mmHg 64%
22:00 +21°C° 0 mm 2 mps 748 mmHg 65%
23:00 +20°C° 0 mm 2 mps 748 mmHg 66%

Day after tomorrow, 26 July, Monday

Time Temperature Precipitation Wind Pressure Humidity
00:00 +20°C° 0 mm 2 mps 748 mmHg 68%
01:00 +19°C° 0 mm 2 mps 748 mmHg 70%
02:00 +19°C° 0 mm 2 mps 748 mmHg 73%
03:00 +18°C° 0 mm 2 mps 748 mmHg 75%
04:00 +18°C° 0 mm 2 mps 748 mmHg 77%
05:00 +18°C° 0 mm 2 mps 748 mmHg 80%
06:00 +19°C° 0 mm 2 mps 749 mmHg 75%
07:00 +21°C° 0 mm 2 mps 749 mmHg 71%
08:00 +23°C° 0 mm 2 mps 749 mmHg 66%
09:00 +25°C° 0 mm 2 mps 749 mmHg 61%
10:00 +26°C° 0 mm 2 mps 749 mmHg 56%
11:00 +27°C° 0 mm 2 mps 749 mmHg 50%
12:00 +28°C° 0 mm 2 mps 749 mmHg 49%
13:00 +28°C° 0 mm 2 mps 749 mmHg 48%
14:00 +28°C° 0 mm 2 mps 748 mmHg 46%
15:00 +27°C° 0 mm 2 mps 748 mmHg 50%
16:00 +27°C° 0 mm 2 mps 748 mmHg 54%
17:00 +26°C° 0 mm 3 mps 748 mmHg 58%
18:00 +25°C° 0 mm 3 mps 748 mmHg 61%
19:00 +23°C° 0 mm 2 mps 748 mmHg 65%
20:00 +21°C° 0 mm 2 mps 748 mmHg 68%
21:00 +21°C° 0 mm 2 mps 748 mmHg 68%
22:00 +21°C° 0 mm 2 mps 748 mmHg 68%
23:00 +20°C° 0 mm 2 mps 748 mmHg 68%

27 July, Tuesday

Time Temperature Precipitation Wind Pressure Humidity
00:00 +20°C° 0 mm 2 mps 749 mmHg 73%
01:00 +19°C° 0 mm 2 mps 749 mmHg 77%
02:00 +18°C° 0 mm 2 mps 749 mmHg 82%
03:00 +18°C° 0 mm 2 mps 748 mmHg 83%
04:00 +17°C° 0 mm 2 mps 748 mmHg 84%
05:00 +17°C° 0 mm 2 mps 748 mmHg 85%
06:00 +19°C° 0 mm 3 mps 748 mmHg 78%
07:00 +21°C° 0 mm 3 mps 748 mmHg 71%
08:00 +24°C° 0 mm 3 mps 748 mmHg 63%
09:00 +25°C° 0 mm 3 mps 748 mmHg 58%
10:00 +27°C° 0 mm 4 mps 748 mmHg 52%
11:00 +29°C° 0 mm 4 mps 748 mmHg 46%
12:00 +29°C° 0 mm 4 mps 748 mmHg 44%
13:00 +30°C° 0 mm 4 mps 747 mmHg 41%
14:00 +30°C° 0 mm 4 mps 747 mmHg 38%
15:00 +30°C° 0 mm 3 mps 747 mmHg 41%
16:00 +30°C° 0 mm 3 mps 746 mmHg 43%
17:00 +29°C° 0 mm 3 mps 746 mmHg 45%
18:00 +28°C° 0 mm 3 mps 746 mmHg 49%
19:00 +26°C° 0 mm 3 mps 746 mmHg 52%
20:00 +25°C° 0 mm 3 mps 745 mmHg 55%
21:00 +23°C° 0 mm 4 mps 745 mmHg 55%
22:00 +23°C° 0 mm 4 mps 745 mmHg 56%
23:00 +22°C° 0 mm 4 mps 745 mmHg 56%

28 July, Wednesday

Time Temperature Precipitation Wind Pressure Humidity
00:00 +21°C° 0.2 mm 4 mps 745 mmHg 62%
01:00 +21°C° 0.2 mm 4 mps 744 mmHg 68%
02:00 +20°C° 0.2 mm 4 mps 744 mmHg 74%
03:00 +19°C° 0.2 mm 3 mps 744 mmHg 76%
04:00 +19°C° 0.2 mm 3 mps 744 mmHg 78%
05:00 +19°C° 0.2 mm 3 mps 744 mmHg 81%
06:00 +19°C° 0 mm 3 mps 743 mmHg 80%
07:00 +20°C° 0 mm 4 mps 743 mmHg 80%
08:00 +20°C° 0 mm 4 mps 743 mmHg 80%
09:00 +21°C° 0.5 mm 5 mps 743 mmHg 82%
10:00 +21°C° 0.5 mm 5 mps 743 mmHg 84%
11:00 +22°C° 0.5 mm 5 mps 742 mmHg 86%
12:00 +21°C° 1.7 mm 5 mps 742 mmHg 89%
13:00 +20°C° 1.7 mm 5 mps 742 mmHg 93%
14:00 +19°C° 1.7 mm 5 mps 742 mmHg 96%
15:00 +20°C° 0.4 mm 5 mps 742 mmHg 95%
16:00 +20°C° 0.4 mm 4 mps 742 mmHg 95%
17:00 +20°C° 0.4 mm 4 mps 741 mmHg 94%
18:00 +20°C° 0 mm 3 mps 741 mmHg 94%
19:00 +20°C° 0 mm 3 mps 741 mmHg 95%
20:00 +20°C° 0 mm 2 mps 741 mmHg 96%
21:00 +19°C° 0 mm 2 mps 741 mmHg 96%
22:00 +19°C° 0 mm 2 mps 741 mmHg 96%
23:00 +19°C° 0 mm 2 mps 741 mmHg 96%

29 July, Thursday

Time Temperature Precipitation Wind Pressure Humidity
00:00 +19°C° 0 mm 2 mps 740 mmHg 96%
01:00 +18°C° 0 mm 2 mps 740 mmHg 95%
02:00 +18°C° 0 mm 2 mps 740 mmHg 95%
03:00 +18°C° 0 mm 2 mps 740 mmHg 94%
04:00 +18°C° 0 mm 2 mps 740 mmHg 94%
05:00 +18°C° 0 mm 2 mps 740 mmHg 94%
06:00 +19°C° 0 mm 3 mps 740 mmHg 89%
07:00 +21°C° 0 mm 3 mps 740 mmHg 83%
08:00 +22°C° 0 mm 3 mps 741 mmHg 78%
09:00 +25°C° 0 mm 3 mps 741 mmHg 69%
10:00 +27°C° 0 mm 4 mps 741 mmHg 61%
11:00 +28°C° 0 mm 4 mps 741 mmHg 52%
12:00 +29°C° 0 mm 4 mps 741 mmHg 52%
13:00 +29°C° 0 mm 4 mps 741 mmHg 52%
14:00 +29°C° 0 mm 4 mps 740 mmHg 51%
15:00 +29°C° 0 mm 4 mps 740 mmHg 54%
16:00 +28°C° 0 mm 4 mps 740 mmHg 57%
17:00 +27°C° 0 mm 4 mps 740 mmHg 59%
18:00 +26°C° 0 mm 4 mps 740 mmHg 63%
19:00 +25°C° 0 mm 4 mps 741 mmHg 67%
20:00 +22°C° 0 mm 4 mps 741 mmHg 70%
21:00 +21°C° 0 mm 3 mps 741 mmHg 75%
22:00 +20°C° 0 mm 3 mps 741 mmHg 80%
23:00 +19°C° 0 mm 3 mps 741 mmHg 85%
Show more

We Need Your Consent

Meteoprog and our Service Providers may store and access personal data such as cookies, device identifiers or other similar technologies on your device and process such data to personalise content and ads, as well as provide social media features and to analyse the traffic.

  • Store and/or access information on your device

    Cookies, device identifiers or other information can be stored or accessed on your device for the purposes indicated above.

  • Personalised ads and content, ad and content measurement, audience insights, and products development

    Ads and content can be personalised based on a profile. More data can be added to better personalise ads and content. Ad and content performance can be measured. Insights about the audience who saw the ads and content can be derived. Such data can be used to develop or improve user’s experience, systems and software.

By clicking ‘I Agree’ you will allow the use of indicated cookies, device identifiers, web beacons or other similar technologies. Your settings can be changed in the browser on your device.

For certain purposes, legitimate interests may be relied on, rather than consent. You can read more about this in our Privacy and Cookie Policy.